NAVSTAR 76 (USA 266)    
1 41328U 16007A   19264.37593054  .00000010  00000-0  00000+0 0  9990
2 41328  54.8186 187.1565 0033720 219.6314 140.1439  2.00568547 26531
ATLAS V CENTAUR R/B     
1 41329U 16007B   19265.07459094  .00000009  00000-0  00000+0 0  9992
2 41329  55.1751 191.4346 0150861 310.5219  48.1857  1.91800255 25398